• Em Portugal
  • Lista de países
  • Para 7 dias
  • Temperatura da água
  • Mapas de satélite
  • Mapa do tempo
  • Widgets de tempo
  • user-avatar
    Iniciar Sessão

    Previsão horária em Lindenberg im Allgäu

    Hoje, 18 Agosto, Sexta-feira

    Tempo Temperatura Precipitação Vento Pressão Humidade
    00:00 +20°C° 0,4 mm 2 m/s 757 mmHg 86%
    01:00 +20°C° 0 mm 2 m/s 757 mmHg 90%
    02:00 +20°C° 0,1 mm 2 m/s 757 mmHg 91%
    03:00 +19°C° 0,1 mm 2 m/s 757 mmHg 92%
    04:00 +20°C° 0,1 mm 1 m/s 757 mmHg 94%
    05:00 +21°C° 0 mm 1 m/s 757 mmHg 91%
    06:00 +21°C° 0 mm 1 m/s 757 mmHg 89%
    07:00 +22°C° 0 mm 1 m/s 757 mmHg 85%
    08:00 +24°C° 0 mm 2 m/s 756 mmHg 79%
    09:00 +25°C° 0 mm 3 m/s 756 mmHg 73%
    10:00 +27°C° 0 mm 3 m/s 756 mmHg 66%
    11:00 +27°C° 0,3 mm 4 m/s 756 mmHg 63%
    12:00 +28°C° 0,3 mm 4 m/s 755 mmHg 60%
    13:00 +29°C° 0,3 mm 4 m/s 755 mmHg 57%
    14:00 +29°C° 0,4 mm 4 m/s 755 mmHg 58%
    15:00 +28°C° 0,4 mm 3 m/s 754 mmHg 60%
    16:00 +28°C° 0,4 mm 2 m/s 754 mmHg 61%
    17:00 +27°C° 0,8 mm 2 m/s 753 mmHg 65%
    18:00 +26°C° 0,8 mm 2 m/s 753 mmHg 69%
    19:00 +26°C° 0,8 mm 2 m/s 753 mmHg 74%
    20:00 +24°C° 1,2 mm 2 m/s 753 mmHg 78%
    21:00 +22°C° 1,2 mm 3 m/s 753 mmHg 83%
    22:00 +21°C° 1,2 mm 3 m/s 753 mmHg 87%
    23:00 +20°C° 0 mm 3 m/s 753 mmHg 88%

    Amanhã, 19 Agosto, Sábado

    Tempo Temperatura Precipitação Vento Pressão Humidade
    00:00 +20°C° 0 mm 3 m/s 754 mmHg 89%
    01:00 +19°C° 0 mm 4 m/s 754 mmHg 90%
    02:00 +18°C° 0 mm 3 m/s 754 mmHg 90%
    03:00 +18°C° 0 mm 3 m/s 755 mmHg 90%
    04:00 +18°C° 0 mm 3 m/s 755 mmHg 90%
    05:00 +18°C° 0 mm 3 m/s 755 mmHg 88%
    06:00 +18°C° 0 mm 4 m/s 756 mmHg 87%
    07:00 +18°C° 0 mm 4 m/s 756 mmHg 85%
    08:00 +18°C° 0 mm 4 m/s 756 mmHg 81%
    09:00 +18°C° 0 mm 4 m/s 757 mmHg 77%
    10:00 +19°C° 0 mm 3 m/s 757 mmHg 72%
    11:00 +20°C° 0 mm 4 m/s 757 mmHg 65%
    12:00 +21°C° 0 mm 4 m/s 757 mmHg 59%
    13:00 +22°C° 0 mm 4 m/s 757 mmHg 52%
    14:00 +22°C° 0 mm 3 m/s 757 mmHg 49%
    15:00 +22°C° 0 mm 3 m/s 757 mmHg 46%
    16:00 +24°C° 0 mm 3 m/s 757 mmHg 44%
    17:00 +21°C° 0 mm 3 m/s 757 mmHg 48%
    18:00 +20°C° 0 mm 2 m/s 758 mmHg 53%
    19:00 +19°C° 0 mm 2 m/s 758 mmHg 58%
    20:00 +18°C° 0 mm 2 m/s 758 mmHg 61%
    21:00 +18°C° 0 mm 2 m/s 758 mmHg 64%
    22:00 +17°C° 0 mm 2 m/s 759 mmHg 67%
    23:00 +16°C° 0 mm 2 m/s 759 mmHg 71%

    Depois de amanhã, 20 Agosto, Domingo

    Tempo Temperatura Precipitação Vento Pressão Humidade
    00:00 +16°C° 0 mm 2 m/s 759 mmHg 74%
    01:00 +15°C° 0 mm 2 m/s 759 mmHg 78%
    02:00 +15°C° 0 mm 2 m/s 759 mmHg 81%
    03:00 +14°C° 0 mm 2 m/s 759 mmHg 84%
    04:00 +14°C° 0 mm 2 m/s 759 mmHg 87%
    05:00 +15°C° 0 mm 2 m/s 760 mmHg 84%
    06:00 +15°C° 0 mm 2 m/s 760 mmHg 81%
    07:00 +16°C° 0 mm 2 m/s 760 mmHg 78%
    08:00 +17°C° 0 mm 3 m/s 760 mmHg 70%
    09:00 +19°C° 0 mm 3 m/s 760 mmHg 61%
    10:00 +20°C° 0 mm 3 m/s 760 mmHg 53%
    11:00 +21°C° 0,1 mm 3 m/s 760 mmHg 51%
    12:00 +22°C° 0,1 mm 3 m/s 760 mmHg 49%
    13:00 +22°C° 0,1 mm 3 m/s 760 mmHg 47%
    14:00 +22°C° 0,1 mm 3 m/s 760 mmHg 47%
    15:00 +22°C° 0,1 mm 3 m/s 759 mmHg 47%
    16:00 +22°C° 0,1 mm 3 m/s 759 mmHg 46%
    17:00 +21°C° 0 mm 3 m/s 759 mmHg 52%
    18:00 +20°C° 0 mm 2 m/s 760 mmHg 57%
    19:00 +19°C° 0 mm 2 m/s 760 mmHg 62%
    20:00 +18°C° 0,1 mm 2 m/s 760 mmHg 67%
    21:00 +17°C° 0,1 mm 2 m/s 760 mmHg 72%
    22:00 +16°C° 0,1 mm 2 m/s 760 mmHg 77%
    23:00 +15°C° 0,1 mm 2 m/s 760 mmHg 80%

    21 Agosto, Segunda-feira

    Tempo Temperatura Precipitação Vento Pressão Humidade
    00:00 +15°C° 0,1 mm 2 m/s 760 mmHg 82%
    01:00 +14°C° 0,1 mm 3 m/s 760 mmHg 85%
    02:00 +13°C° 0,2 mm 3 m/s 760 mmHg 87%
    03:00 +13°C° 0,2 mm 3 m/s 760 mmHg 88%
    04:00 +13°C° 0,2 mm 3 m/s 760 mmHg 90%
    05:00 +13°C° 0 mm 3 m/s 760 mmHg 88%
    06:00 +13°C° 0 mm 4 m/s 761 mmHg 86%
    07:00 +14°C° 0 mm 4 m/s 761 mmHg 84%
    08:00 +15°C° 0,1 mm 4 m/s 761 mmHg 78%
    09:00 +17°C° 0,1 mm 4 m/s 761 mmHg 73%
    10:00 +19°C° 0,1 mm 4 m/s 761 mmHg 67%
    11:00 +19°C° 0,3 mm 5 m/s 760 mmHg 63%
    12:00 +20°C° 0,3 mm 5 m/s 760 mmHg 60%
    13:00 +21°C° 0,3 mm 5 m/s 760 mmHg 57%
    14:00 +21°C° 0,3 mm 5 m/s 760 mmHg 57%
    15:00 +21°C° 0,3 mm 5 m/s 760 mmHg 57%
    16:00 +21°C° 0,3 mm 5 m/s 760 mmHg 57%
    17:00 +20°C° 0,4 mm 4 m/s 760 mmHg 64%
    18:00 +19°C° 0,4 mm 3 m/s 760 mmHg 70%
    19:00 +17°C° 0,4 mm 3 m/s 760 mmHg 77%
    20:00 +17°C° 0,1 mm 2 m/s 760 mmHg 80%
    21:00 +16°C° 0,1 mm 2 m/s 760 mmHg 84%
    22:00 +15°C° 0,1 mm 2 m/s 761 mmHg 87%
    23:00 +15°C° 0 mm 2 m/s 761 mmHg 88%

    22 Agosto, Terça-feira

    Tempo Temperatura Precipitação Vento Pressão Humidade
    00:00 +14°C° 0 mm 2 m/s 761 mmHg 90%
    01:00 +14°C° 0 mm 2 m/s 761 mmHg 92%
    02:00 +14°C° 0 mm 2 m/s 761 mmHg 93%
    03:00 +14°C° 0 mm 2 m/s 761 mmHg 94%
    04:00 +13°C° 0 mm 2 m/s 761 mmHg 95%
    05:00 +14°C° 0 mm 2 m/s 761 mmHg 92%
    06:00 +14°C° 0 mm 2 m/s 761 mmHg 90%
    07:00 +15°C° 0 mm 2 m/s 761 mmHg 88%
    08:00 +16°C° 0 mm 2 m/s 761 mmHg 82%
    09:00 +18°C° 0 mm 2 m/s 761 mmHg 76%
    10:00 +19°C° 0 mm 2 m/s 761 mmHg 69%
    11:00 +20°C° 0 mm 2 m/s 761 mmHg 65%
    12:00 +21°C° 0 mm 2 m/s 761 mmHg 60%
    13:00 +23°C° 0 mm 2 m/s 761 mmHg 55%
    14:00 +23°C° 0 mm 2 m/s 760 mmHg 54%
    15:00 +24°C° 0 mm 2 m/s 760 mmHg 53%
    16:00 +24°C° 0 mm 2 m/s 760 mmHg 51%
    17:00 +21°C° 0 mm 2 m/s 760 mmHg 57%
    18:00 +20°C° 0 mm 2 m/s 760 mmHg 64%
    19:00 +20°C° 0 mm 1 m/s 760 mmHg 70%
    20:00 +19°C° 0 mm 1 m/s 760 mmHg 73%
    21:00 +18°C° 0 mm 1 m/s 760 mmHg 77%
    22:00 +16°C° 0 mm 1 m/s 760 mmHg 80%
    23:00 +16°C° 0 mm 1 m/s 760 mmHg 83%

    23 Agosto, Quarta-feira

    Tempo Temperatura Precipitação Vento Pressão Humidade
    00:00 +15°C° 0 mm 1 m/s 760 mmHg 85%
    01:00 +14°C° 0 mm 0 m/s 760 mmHg 88%
    02:00 +13°C° 0 mm 0 m/s 760 mmHg 88%
    03:00 +13°C° 0 mm 0 m/s 760 mmHg 89%
    04:00 +13°C° 0 mm 0 m/s 760 mmHg 89%
    05:00 +14°C° 0 mm 0 m/s 760 mmHg 86%
    06:00 +15°C° 0 mm 0 m/s 760 mmHg 82%
    07:00 +16°C° 0 mm 0 m/s 760 mmHg 79%
    08:00 +18°C° 0 mm 0 m/s 760 mmHg 71%
    09:00 +20°C° 0 mm 0 m/s 760 mmHg 64%
    10:00 +22°C° 0 mm 0 m/s 760 mmHg 56%
    11:00 +25°C° 0 mm 1 m/s 760 mmHg 52%
    12:00 +25°C° 0 mm 1 m/s 759 mmHg 47%
    13:00 +26°C° 0 mm 1 m/s 759 mmHg 43%
    14:00 +26°C° 0 mm 1 m/s 759 mmHg 43%
    15:00 +26°C° 0 mm 1 m/s 759 mmHg 43%
    16:00 +26°C° 0 mm 1 m/s 759 mmHg 42%
    17:00 +25°C° 0 mm 1 m/s 759 mmHg 48%
    18:00 +23°C° 0 mm 1 m/s 759 mmHg 54%
    19:00 +22°C° 0 mm 1 m/s 759 mmHg 59%
    20:00 +21°C° 0 mm 1 m/s 759 mmHg 62%
    21:00 +20°C° 0 mm 1 m/s 759 mmHg 64%
    22:00 +20°C° 0 mm 1 m/s 759 mmHg 67%
    23:00 +19°C° 0 mm 1 m/s 759 mmHg 68%
    Mostrar mais